sat.trackr.live / text

‹ back to catalog

STARLINK-2464

NORAD 48123 · 2021-027AH

PAYLOAD ACTIVE UNKNOWN

§ Identity

Operator
Country
US
Launch date
2021-04-07
Launch site
AFETR
Launch vehicle
Mass (kg)
RCS (m²)

Purposes: comms

External: N2YO · Heavens-Above · Gunter

§ Orbital elements

Epoch: 2026-09-12T14:15:59.285952Z

Period
94.01 min
Inclination
53.1607°
Eccentricity
0.0001027
Mean motion
15.31703362 rev/d
Perigee alt
470.0 km
Apogee alt
471.4 km
Semi-major
6,848.9 km
B*
1.5028e-4
RAAN
2.8101°
Arg perigee
83.9873°
Mean anomaly
276.1246°
Rev number
30,132

§ Raw data

STARLINK-24641 48123U 21027AH  26255.59443618  .00004302  00000+0  15028-3 0  99972 48123  53.1607   2.8101 0001027  83.9873 276.1246 15.31703362301320

JSON: /api/v1/satellites/48123 · /tle

For live sub-satellite position, see the globe view (requires WebGL).

§ Visibility from observer

Set your observer location to see the next 7 days of passes ≥ 10°. The values pass through the URL so the page stays shareable.

No JS? Fill the form by hand. The geolocation button needs JavaScript.